Sie sind vermutlich noch nicht im Forum angemeldet - Klicken Sie hier um sich kostenlos anzumelden  
NOHAB-GM
Zurück zur Rundnasen-Homepage
Sie können sich hier anmelden
Dieses Forum hat 1.745 Themen
und zur Zeit 2.312 Beiträge
Sie haben keine Schreibrechte
 Externe Links  »Neues Thema erstellen«
Forum Information
   Betreff Absender Antworten Zugriffe Letzter Beitrag
Szekler Schnellzug TMX_104 0 51 25.01.2019 19:03
Diverse ældre DSB diesellokomotiver NOHAB-Pappi 0 57 18.01.2019 09:09
[NO] Das Ende der Di4 wird eingeläutet NOHAB-Pappi 0 48 18.01.2019 08:39
MX 1016 i Frihavnen med Danlink NOHAB-Pappi 0 55 17.01.2019 06:02
Facebook-Gruppe "NOHABs in Deutschland und Europa" NOHAB-Interessent 2 108 24.01.2019 13:08
Ungarn 1991 NOHAB-Pappi 0 48 13.01.2019 06:39
Ungarn aktuell NOHAB-Pappi 0 50 10.01.2019 17:02
My1138+My1151 TMX_104 0 61 07.01.2019 19:52
[DK] MX 1018 til arkivet NOHAB-Pappi 0 57 04.01.2019 14:45
Fast wie neu: NOHAB My 1155 NOHAB-Fan Magdeburg 0 66 02.01.2019 19:38
1148 , 1147 und mehr in Padborg (Link zu DSO) vectrabaerchen 0 51 02.01.2019 14:44
628, 2251 NOHAB-Pappi 0 63 30.12.2018 09:47
[DK] I dag for 40 år siden NOHAB-Pappi 0 61 29.12.2018 07:22
Fra Røros 8.12 NOHAB-Pappi 0 78 09.12.2018 09:24
DI 3 642 i farta igjen NOHAB-Pappi 0 73 03.12.2018 09:21
[DK] DSB ME 1520 NOHAB-Pappi 0 56 02.12.2018 08:57
[DK] MV 1102 med godstog i Esbjerg NOHAB-Pappi 2 91 23.11.2018 17:30
NATO transport till Trident Juncture 18 NOHAB-Pappi 0 58 19.11.2018 07:54
Altmark Rail My 1155 Heute Mittag auf KBS 375 NOHAB-Fan Magdeburg 0 54 15.11.2018 21:41
Di 3 642 på tur igjen NOHAB-Pappi 0 49 15.11.2018 07:01
Die NoHAB My 1138 in Hannover Hbf (2 B.) NOHAB-Fan Magdeburg 0 41 11.11.2018 21:52
MY 1149 at Klanxbüll (Video) SimonTogDK 0 35 11.11.2018 10:23
MY 1149 at Klanxbüll SimonTogDK 2 53 11.11.2018 10:24
Lidt fra Lersøen 1991 NOHAB-Pappi 0 48 09.11.2018 06:18
eine NOHAB im Leinetal NOHAB-Fan Magdeburg 0 49 08.11.2018 15:14
CLR MY 1138 Holz-Kutscher 0 50 07.11.2018 12:29
Altmark Rail MY 1149 NOHAB-Fan Magdeburg 0 57 03.11.2018 22:57
[HR] Kroatiens Eisenbahn wird bunt... 3 Bilder NOHAB-Pappi 0 65 03.11.2018 08:00
MY 1158 with crane SimonTogDK 0 59 02.11.2018 18:33
Gm power på Fryksdalsbanan NOHAB-Pappi 0 68 24.10.2018 20:18
Ældre billeder fra Nykøbing Sjælland på OHJ NOHAB-Pappi 0 74 22.10.2018 19:32
Gera / EBS NOHAB-Pappi 0 104 11.10.2018 07:54
MY 1135 in Taulov SimonTogDK 1 109 10.10.2018 08:42
Strabag-Nohab und Kran NOHAB-Fan Magdeburg 0 73 04.10.2018 15:35
MY 1158 - Skanderborg und Ry SimonTogDK 0 74 24.09.2018 18:48
CFL Cargo på Thybanen! NOHAB-Pappi 0 85 19.09.2018 06:12
MY 1158 between Skanderborg and Ry SimonTogDK 0 81 13.09.2018 22:50
MZ 1459 with cargo from Aalborg SimonTogDK 0 67 11.09.2018 17:48
Fahrt nach Tapolca und zurück mit CLR 1138 und M61 017 NOHAB-Pappi 0 83 11.09.2018 08:07
150 Jahre MÁV Fahrt nach Szentendre NOHAB-Pappi 0 65 10.09.2018 08:35
[SE] NOHAB (NoHAB) PRODUKTKATALOG 1944 (PDF) NOHAB-Pappi 1 1.421 05.09.2018 07:10
MY 1126 Jutland trip - 19/08/2018 - Video SimonTogDK 0 52 03.09.2018 18:34
MY 1126 Jutland trip - 19/08/2018 SimonTogDK 0 72 28.08.2018 21:34
MY 1126 Jutland trip video SimonTogDK 1 114 26.08.2018 11:23
Sonderfahrt mit My 1126 Holz-Kutscher 0 81 23.08.2018 13:17
MY 1126 on Jutlands trip SimonTogDK 0 64 23.08.2018 06:42
CFL MY 1146 with ballast cleaning machine SimonTogDK 0 74 19.08.2018 19:34
[SE] Kiruna, tur med tog 93 og 99, del 4 - TMX x 2 NOHAB-Pappi 0 72 17.08.2018 08:04
MX 1023 + MX 1029 with ET SimonTogDK 0 58 16.08.2018 21:51
[RO]: Letzte Reise des letzten Rumänischen Königs Mihai I (Michael I) (m. L.) NOHAB-Pappi 0 99 05.08.2018 23:34
MX 1019 mit Bettungsreinigungsmaschine SimonTogDK 0 75 05.08.2018 15:20
3 602 plassert på en husvegg i Trollhättan. NOHAB-Pappi 0 96 31.07.2018 05:44
Retro-Wochenende am Balaton TMX_104 0 61 30.07.2018 16:23
Nächstes Wochenende: M61 und M62 am Balaton TMX_104 0 86 24.07.2018 06:36
Noen Di3 bilder fra Flesberg! NOHAB-Pappi 0 94 23.07.2018 06:38
MX 1019 at Handest SimonTogDK 0 64 22.07.2018 20:15
Video of MY 1134 and MX 1008 with Weedfree on track SimonTogDK 0 60 22.07.2018 08:56
MY 1134 + MX 1008 with Weedfree on track - Struer SimonTogDK 0 67 20.07.2018 17:21
MY 1134 + MX 1008 with Weedfree on track - Fredericia SimonTogDK 2 7.693 19.07.2018 20:55
[DK+SE] Von Wandsbek nach Bodø (Teil 3 Oslo - Bodø, m.B.) NOHAB-Pappi 0 76 17.07.2018 07:58
MY 1155 im Odenwald Holz-Kutscher 1 272 16.07.2018 15:59
[NO] Cargonet CD312 006 i tog 5795 NOHAB-Pappi 0 74 12.07.2018 07:16
Tømmertog passerer Brøttum NOHAB-Pappi 0 73 10.07.2018 09:05
Altmark Rail MY 1149 in Patt- und Flensburg-Weiche NOHAB-Fan Magdeburg 0 78 09.07.2018 22:55
Nohab at Padborg SimonTogDK 0 71 09.07.2018 21:05
Nohab in Gütersloh NOHAB-Fan Magdeburg 0 75 08.07.2018 19:47
[NO] Matrand - det hilses til passerende tog NOHAB-Pappi 0 74 06.07.2018 10:40
[DK]2 Großdiesel am schuften (3Bilder) NOHAB-Pappi 0 80 04.07.2018 21:54
MX 1019 in Randers SimonTogDK 0 67 04.07.2018 21:49
Nohab in Darmstadt Kranichstein NOHAB-Fan Magdeburg 0 80 30.06.2018 09:59
MAERSK tog Århus-Taulov NOHAB-Pappi 0 74 28.06.2018 06:26
"Kontorplassen min" NOHAB-Pappi 0 68 27.06.2018 09:50
MY 1146, MX 1023 and MX 1029 with ET 21 SimonTogDK 0 66 26.06.2018 18:50
Sonderzug für Janosch NOHAB-Pappi 0 76 25.06.2018 07:16
MY 1134 at Stevnstrup SimonTogDK 0 59 23.06.2018 12:43
 Sprung Seite 1  2  3  4  5 - 24  weiter »
NOHAB-GM
Xobor Forum Software von Xobor
Einfach ein eigenes Forum erstellen